#timestamp,LO_Frequency,Hit,StdDev 
1501585215.8,286046998.3,N,1.3
1501585235.7,286046998.9,N,1.3
1501585255.5,286046999.6,N,1.2
1501585275.4,286046999.6,N,1.2
1501585295.2,286046997.7,N,1.2
1501585315.0,286046997.2,N,1.3
1501585315.9,286046997.2,N,1.3
1501585335.8,286046997.5,N,1.3
1501585355.6,286046997.4,N,1.3
1501585375.5,286046997.1,N,1.4
1501585395.3,286046997.1,N,1.4
1501585415.1,286046997.4,N,1.4
1501585435.9,286046999.6,N,1.4
1501585455.7,286046996.7,N,1.5
1501585475.5,286046997.6,N,1.5
1501585495.4,286046996.5,N,1.5
1501585515.2,286046997.3,N,1.5
1501585535.1,286046996.6,N,1.5
1501585536.0,286046996.6,N,1.5
1501585555.8,286046997.3,N,1.6
1501585575.6,286046996.6,N,1.6
1501585595.5,286046996.7,N,1.6
1501585615.3,286046998.8,N,1.5
1501585635.2,286046999.5,N,1.4
1501585655.9,286046999.0,N,1.4
1501585675.7,286046999.2,N,1.3
1501585695.6,286046999.0,N,1.2
1501585715.4,286046996.8,N,1.2
1501585735.3,286046996.6,N,1.1
1501585755.1,286046998.7,N,1.1
1501585756.0,286046998.7,N,1.1
1501585775.8,286046998.9,N,1.1
1501585795.7,286046997.0,N,1.0
1501585815.5,286046996.6,P,0.6
1501585835.4,286046998.5,N,0.8
1501585855.2,286047000.8,N,1.5
1501585875.0,286047000.0,N,1.5
1501585875.9,286047000.0,N,1.5
1501585895.8,286047002.3,N,1.8
1501585915.6,286047000.3,N,1.7
1501585935.5,286047002.7,N,1.9
1501585955.3,286047000.1,N,1.8
1501585975.1,286046999.8,N,1.7
1501585995.9,286046999.8,N,1.6
1501586015.7,286047000.1,N,1.6
1501586035.5,286047001.9,N,1.6
1501586055.4,286047000.1,N,1.5
1501586075.2,286047000.4,N,1.5
1501586095.1,286047002.8,N,1.6
1501586096.0,286047002.8,N,1.7
1501586115.8,286046999.9,N,1.6
1501586135.6,286046999.9,N,1.6
1501586155.5,286047002.7,N,1.6
1501586175.3,286047000.4,N,1.6
1501586195.2,286047000.3,N,1.5
1501586215.9,286047000.1,N,1.5
1501586235.7,286046999.7,N,1.5
1501586255.6,286047002.0,N,1.5
1501586275.4,286047001.7,N,1.5
1501586295.3,286047004.2,N,1.6
1501586315.1,286047004.4,N,1.7
1501586316.0,286047004.4,N,1.8
1501586335.8,286047003.7,N,1.8
1501586355.7,286047001.9,N,1.6
1501586375.5,286047004.4,N,1.6
1501586395.4,286047001.6,N,1.6
1501586415.2,286046999.8,N,1.6
1501586435.0,286046999.7,N,1.6
1501586435.9,286046999.7,N,1.6
1501586455.8,286047000.3,N,1.6
1501586475.6,286047001.9,N,1.6
1501586495.5,286047002.1,N,1.6
1501586515.3,286047002.6,N,1.6
1501586535.1,286047002.8,N,1.6
1501586555.9,286046999.7,N,1.6
1501586575.7,286047002.7,N,1.6
1501586595.6,286047000.2,N,1.6
1501586615.4,286047000.0,N,1.6
1501586635.2,286047002.7,N,1.6
1501586655.1,286047002.4,N,1.6
1501586656.0,286047002.4,N,1.6
1501586675.8,286046999.8,N,1.6
1501586695.7,286046999.9,N,1.6
1501586715.5,286047002.4,N,1.6
1501586735.3,286047002.3,N,1.6
1501586755.2,286047000.1,N,1.6
1501586775.0,286047000.1,N,1.6
1501586775.9,286047000.1,N,1.6
1501586795.8,286046999.7,N,1.6
1501586815.6,286046999.8,N,1.6
1501586835.4,286046999.7,N,1.5
1501586855.3,286047002.4,N,1.4
1501586875.1,286047002.8,N,1.4
1501586895.9,286046999.8,N,1.4
1501586915.7,286047001.4,N,1.2
1501586935.5,286047003.8,P,1.4
1501586955.4,286047002.4,N,1.1
1501586975.2,286047002.0,N,1.0
1501586995.0,286047002.2,N,0.9
1501586996.0,286047002.2,N,0.8
1501587015.8,286047002.3,N,0.8
1501587035.6,286047000.2,N,1.0
1501587055.5,286047002.6,N,0.9
1501587075.3,286047002.8,N,0.9
1501587095.1,286046999.7,N,1.1
1501587115.9,286047000.0,N,1.2
1501587135.7,286047000.5,N,1.2
1501587155.6,286047001.0,N,1.2
1501587175.4,286047000.6,N,1.2
1501587195.2,286047000.3,N,1.2
1501587215.1,286047000.9,N,1.1
1501587216.0,286047000.9,N,1.1
1501587235.8,286047002.4,N,1.1
1501587255.7,286047001.7,N,1.1
1501587275.5,286047001.7,N,1.1
1501587295.3,286047002.6,N,1.1
1501587315.2,286047002.0,N,1.0
1501587335.0,286047001.6,N,1.0
1501587335.9,286047001.6,N,1.0
1501587355.8,286047002.3,N,1.0
1501587375.6,286046999.8,N,1.0
1501587395.4,286046999.7,N,1.1
1501587415.3,286047000.1,N,1.1
1501587435.1,286047000.1,N,1.1
1501587455.9,286047000.5,N,1.1
1501587475.7,286047001.9,N,1.0
1501587495.5,286047002.4,N,1.0
1501587515.4,286047002.5,N,1.0
1501587535.2,286047002.2,N,1.0
1501587555.0,286047001.5,N,1.0
1501587556.0,286047001.5,N,1.0
1501587575.8,286047001.4,N,1.0
1501587595.6,286047001.9,N,0.9
1501587615.5,286047001.6,N,0.9
1501587635.3,286047001.3,N,0.9
1501587655.1,286047001.8,N,0.8
1501587675.9,286047004.2,P,1.4
1501587695.7,286047000.2,N,1.7
1501587715.6,286047002.8,N,1.5
1501587735.4,286047000.2,N,1.6
1501587755.3,286046999.9,N,1.6
1501587775.1,286046999.9,N,1.6
1501587776.0,286046999.9,N,1.5
1501587795.8,286047002.3,N,1.5
1501587815.7,286047002.0,N,1.4
1501587835.5,286046999.9,N,1.4
1501587855.4,286047002.8,N,1.4
1501587875.2,286047002.1,N,1.4
1501587895.0,286047000.5,N,1.4
1501587895.9,286047000.5,N,1.3
1501587915.8,286047000.3,N,1.3
1501587935.6,286046999.9,N,1.3
1501587955.5,286046999.8,N,1.3
1501587975.3,286046999.8,N,1.3
1501587995.1,286046999.7,N,1.3
1501588015.9,286047002.2,N,1.3
1501588035.7,286047000.2,N,1.3
1501588055.5,286047000.0,N,1.3
1501588075.4,286046999.9,N,1.2
1501588095.2,286047002.4,N,1.3
1501588115.1,286047000.6,N,1.2
1501588116.0,286047000.6,N,1.2
1501588135.8,286047000.4,N,1.2
1501588155.7,286047000.5,N,1.2
1501588175.5,286047000.5,N,1.2
1501588195.3,286047000.7,N,1.2
1501588215.2,286047000.7,N,1.0
1501588235.0,286046999.4,N,1.0
1501588235.9,286046999.4,N,0.9
1501588255.7,286046998.4,N,1.0
1501588275.6,286046998.4,N,1.1
1501588295.4,286046999.4,N,1.1
1501588315.3,286046998.2,N,1.2
1501588335.1,286047000.6,N,1.1
1501588355.9,286046998.2,N,1.1
1501588375.7,286046998.1,N,1.2
1501588395.5,286046998.3,N,1.1
1501588415.4,286046998.8,N,1.1
1501588435.2,286047002.8,N,1.2
1501588455.1,286047002.8,N,1.3
1501588456.0,286047002.8,N,1.4
1501588475.8,286046999.8,N,1.4
1501588495.6,286047000.6,N,1.4
1501588515.5,286047000.3,N,1.4
1501588535.3,286046999.8,N,1.4
1501588555.2,286046999.7,N,1.3
1501588575.9,286047000.8,N,1.3
1501588595.7,286047000.6,N,1.3
1501588615.6,286047000.7,N,1.3
1501588635.4,286046999.8,N,1.3
1501588655.3,286047000.5,N,1.3
1501588675.1,286047001.1,N,1.3
1501588676.0,286047001.1,N,1.3
1501588695.8,286047000.7,N,1.3
1501588715.7,286046998.5,N,1.3
1501588735.5,286046998.7,N,1.3
1501588755.3,286046998.8,N,1.4
1501588775.2,286046998.5,N,1.4
1501588795.0,286047001.0,N,1.4
1501588795.9,286047001.0,N,1.4
